Time,TemperatureF,DewpointF,PressureIn,WindDirection,WindDirectionDegrees,WindSpeedMPH,WindSpeedGustMPH,Humidity,HourlyPrecipIn,Conditions,Clouds,dailyrainin,SolarRadiationWatts/m^2,SoftwareType,DateUTC
2013-05-26 00:01:00,46.1,34.6,30.31,NNW,344,0.3,1.1,64,0.00,BKN,,0.00,0.0,WeatherDisplay:10.37,2013-05-26 04:01:00,
2013-05-26 00:06:00,45.8,34.3,30.31,NNW,344,0.0,0.0,64,0.00,SCT,,0.00,0.0,WeatherDisplay:10.37,2013-05-26 04:06:00,
2013-05-26 00:11:00,45.7,35.7,30.31,NNW,344,0.0,0.0,68,0.00,SCT,,0.00,0.0,WeatherDisplay:10.37,2013-05-26 04:11:00,
2013-05-26 00:16:00,45.3,36.1,30.31,NNW,344,0.0,0.0,70,0.00,SCT,,0.00,0.0,WeatherDisplay:10.37,2013-05-26 04:16:00,
2013-05-26 00:21:00,44.6,36.1,30.31,NNW,344,0.0,0.0,72,0.00,SCT,,0.00,0.0,WeatherDisplay:10.37,2013-05-26 04:21:00,
2013-05-26 00:26:00,44.2,37.1,30.31,NNW,344,1.3,2.3,76,0.00,SCT,,0.00,0.0,WeatherDisplay:10.37,2013-05-26 04:26:00,
2013-05-26 00:31:00,43.8,36.7,30.31,NNW,344,0.0,0.0,76,0.00,SCT,,0.00,0.0,WeatherDisplay:10.37,2013-05-26 04:31:00,
2013-05-26 00:36:00,43.5,36.4,30.31,NNW,344,0.0,0.0,76,0.00,SCT,,0.00,0.0,WeatherDisplay:10.37,2013-05-26 04:36:00,
2013-05-26 00:41:00,43.2,36.5,30.31,NNW,344,0.0,0.0,77,0.00,SCT,,0.00,0.0,WeatherDisplay:10.37,2013-05-26 04:41:00,
2013-05-26 00:46:00,42.9,36.5,30.31,NNW,344,0.0,0.0,78,0.00,SCT,,0.00,0.0,WeatherDisplay:10.37,2013-05-26 04:46:00,
2013-05-26 00:51:00,42.7,36.0,30.31,NNW,344,0.0,0.0,77,0.00,SCT,,0.00,0.0,WeatherDisplay:10.37,2013-05-26 04:51:00,
2013-05-26 00:56:00,42.5,36.1,30.30,NNW,344,0.0,0.0,78,0.00,SCT,,0.00,0.0,WeatherDisplay:10.37,2013-05-26 04:56:00,
2013-05-26 01:01:00,42.3,36.3,30.31,NNW,344,0.0,0.0,79,0.00,SCT,,0.00,0.0,WeatherDisplay:10.37,2013-05-26 05:01:00,
2013-05-26 01:06:00,42.2,36.2,30.30,NNW,344,0.0,0.0,79,0.00,SCT,,0.00,0.0,WeatherDisplay:10.37,2013-05-26 05:06:00,
2013-05-26 01:11:00,42.0,36.0,30.30,NNW,344,0.3,1.1,79,0.00,SCT,,0.00,0.0,WeatherDisplay:10.37,2013-05-26 05:11:00,
2013-05-26 01:16:00,42.0,36.3,30.30,NNW,344,0.0,0.0,80,0.00,SCT,,0.00,0.0,WeatherDisplay:10.37,2013-05-26 05:16:00,
2013-05-26 01:21:00,41.8,36.1,30.30,ENE,59,0.0,1.1,80,0.00,SCT,,0.00,0.0,WeatherDisplay:10.37,2013-05-26 05:21:00,
2013-05-26 01:26:00,41.6,36.2,30.30,ENE,59,0.0,0.0,81,0.00,SCT,,0.00,0.0,WeatherDisplay:10.37,2013-05-26 05:26:00,
2013-05-26 01:31:00,41.4,36.3,30.30,ENE,59,0.0,1.1,82,0.00,SCT,,0.00,0.0,WeatherDisplay:10.37,2013-05-26 05:31:00,
2013-05-26 01:36:00,41.0,36.2,30.30,ENE,59,0.0,1.1,83,0.00,SCT,,0.00,0.0,WeatherDisplay:10.37,2013-05-26 05:36:00,
2013-05-26 01:41:00,40.9,36.1,30.30,ENE,59,0.0,0.0,83,0.00,SCT,,0.00,0.0,WeatherDisplay:10.37,2013-05-26 05:41:00,
2013-05-26 01:46:00,40.6,36.1,30.30,ENE,59,0.0,0.0,84,0.00,SCT,,0.00,0.0,WeatherDisplay:10.37,2013-05-26 05:46:00,
2013-05-26 01:51:00,40.2,36.1,30.30,ENE,59,0.0,0.0,85,0.00,SCT,,0.00,0.0,WeatherDisplay:10.37,2013-05-26 05:51:00,
2013-05-26 01:56:00,39.9,36.1,30.30,ENE,59,0.0,0.0,86,0.00,SCT,,0.00,0.0,WeatherDisplay:10.37,2013-05-26 05:56:00,
2013-05-26 02:01:00,39.9,36.1,30.30,ENE,59,0.0,0.0,86,0.00,SCT,,0.00,0.0,WeatherDisplay:10.37,2013-05-26 06:01:00,
2013-05-26 02:06:00,39.8,36.2,30.30,ENE,59,0.1,0.0,87,0.00,SCT,,0.00,0.0,WeatherDisplay:10.37,2013-05-26 06:06:00,
2013-05-26 02:11:00,39.9,36.3,30.30,ENE,59,0.8,1.1,87,0.00,SCT,,0.00,0.0,WeatherDisplay:10.37,2013-05-26 06:11:00,
2013-05-26 02:16:00,40.0,36.2,30.30,ENE,59,0.2,2.3,86,0.00,SCT,,0.00,0.0,WeatherDisplay:10.37,2013-05-26 06:16:00,
2013-05-26 02:21:00,39.9,36.3,30.30,ENE,59,0.0,1.1,87,0.00,SCT,,0.00,0.0,WeatherDisplay:10.37,2013-05-26 06:21:00,
2013-05-26 02:26:00,39.8,36.2,30.30,ENE,59,0.0,0.0,87,0.00,SCT,,0.00,0.0,WeatherDisplay:10.37,2013-05-26 06:26:00,
2013-05-26 02:31:00,39.7,36.1,30.30,ENE,59,0.0,0.0,87,0.00,SCT,,0.00,0.0,WeatherDisplay:10.37,2013-05-26 06:31:00,
2013-05-26 02:36:00,39.6,36.3,30.30,ENE,59,0.0,0.0,88,0.00,SCT,,0.00,0.0,WeatherDisplay:10.37,2013-05-26 06:36:00,
2013-05-26 02:41:00,39.4,36.1,30.29,ENE,59,0.0,0.0,88,0.00,SCT,,0.00,0.0,WeatherDisplay:10.37,2013-05-26 06:41:00,
2013-05-26 02:46:00,39.4,36.1,30.29,ENE,59,0.0,0.0,88,0.00,SCT,,0.00,0.0,WeatherDisplay:10.37,2013-05-26 06:46:00,
2013-05-26 02:51:00,39.1,35.8,30.29,ENE,59,0.0,0.0,88,0.00,SCT,,0.00,0.0,WeatherDisplay:10.37,2013-05-26 06:51:00,
2013-05-26 02:56:00,38.9,35.9,30.29,ENE,59,0.0,0.0,89,0.00,SCT,,0.00,0.0,WeatherDisplay:10.37,2013-05-26 06:56:00,
2013-05-26 03:01:00,38.9,36.2,30.29,ENE,59,0.2,1.1,90,0.00,SCT,,0.00,0.0,WeatherDisplay:10.37,2013-05-26 07:01:00,
2013-05-26 03:06:00,39.0,36.0,30.29,ENE,59,0.1,1.1,89,0.00,SCT,,0.00,0.0,WeatherDisplay:10.37,2013-05-26 07:06:00,
2013-05-26 03:11:00,39.3,36.3,30.29,ENE,59,0.0,0.0,89,0.00,SCT,,0.00,0.0,WeatherDisplay:10.37,2013-05-26 07:11:00,
2013-05-26 03:16:00,39.1,35.8,30.29,ENE,59,0.0,0.0,88,0.00,SCT,,0.00,0.0,WeatherDisplay:10.37,2013-05-26 07:16:00,
2013-05-26 03:21:00,38.9,35.9,30.29,ENE,59,0.0,0.0,89,0.00,SCT,,0.00,0.0,WeatherDisplay:10.37,2013-05-26 07:21:00,
2013-05-26 03:26:00,38.7,35.7,30.29,ENE,59,0.1,1.1,89,0.00,SCT,,0.00,0.0,WeatherDisplay:10.37,2013-05-26 07:26:00,
2013-05-26 03:31:00,38.6,35.6,30.29,ENE,59,0.0,0.0,89,0.00,SCT,,0.00,0.0,WeatherDisplay:10.37,2013-05-26 07:31:00,
2013-05-26 03:36:00,38.3,35.6,30.29,ENE,59,0.0,0.0,90,0.00,SCT,,0.00,0.0,WeatherDisplay:10.37,2013-05-26 07:36:00,
2013-05-26 03:41:00,38.2,35.5,30.29,ENE,59,0.0,0.0,90,0.00,SCT,,0.00,0.0,WeatherDisplay:10.37,2013-05-26 07:41:00,
2013-05-26 03:46:00,38.2,35.5,30.30,ENE,59,0.0,0.0,90,0.00,SCT,,0.00,0.0,WeatherDisplay:10.37,2013-05-26 07:46:00,
2013-05-26 03:51:00,38.2,35.8,30.30,ENE,59,0.0,0.0,91,0.00,SCT,,0.00,0.0,WeatherDisplay:10.37,2013-05-26 07:51:00,
2013-05-26 03:56:00,38.0,35.6,30.30,ENE,59,0.0,0.0,91,0.00,SCT,,0.00,0.0,WeatherDisplay:10.37,2013-05-26 07:56:00,
2013-05-26 04:01:00,37.9,35.5,30.30,ENE,59,0.0,0.0,91,0.00,SCT,,0.00,0.0,WeatherDisplay:10.37,2013-05-26 08:01:00,
2013-05-26 04:06:00,37.7,35.3,30.30,ENE,59,0.0,0.0,91,0.00,SCT,,0.00,0.0,WeatherDisplay:10.37,2013-05-26 08:06:00,
2013-05-26 04:11:00,37.7,35.3,30.30,ENE,59,0.0,0.0,91,0.00,SCT,,0.00,0.0,WeatherDisplay:10.37,2013-05-26 08:11:00,
2013-05-26 04:16:00,37.7,35.3,30.31,ENE,59,0.0,2.3,91,0.00,SCT,,0.00,0.0,WeatherDisplay:10.37,2013-05-26 08:16:00,
2013-05-26 04:21:00,37.7,35.3,30.30,ENE,59,0.4,1.1,91,0.00,SCT,,0.00,0.0,WeatherDisplay:10.37,2013-05-26 08:21:00,
2013-05-26 04:26:00,37.7,35.3,30.30,ENE,59,0.3,1.0,91,0.00,SCT,,0.00,0.0,WeatherDisplay:10.37,2013-05-26 08:26:00,
2013-05-26 04:31:00,37.5,35.1,30.31,ENE,59,0.0,0.0,91,0.00,SCT,,0.00,0.0,WeatherDisplay:10.37,2013-05-26 08:31:00,
2013-05-26 04:36:00,37.3,34.9,30.31,East,86,0.5,2.3,91,0.00,SCT,,0.00,0.0,WeatherDisplay:10.37,2013-05-26 08:36:00,
2013-05-26 04:41:00,37.3,34.9,30.31,East,86,0.7,1.0,91,0.00,SCT,,0.00,0.0,WeatherDisplay:10.37,2013-05-26 08:41:00,
2013-05-26 04:46:00,37.3,34.9,30.31,East,86,0.0,0.0,91,0.00,SCT,,0.00,0.0,WeatherDisplay:10.37,2013-05-26 08:46:00,
2013-05-26 04:51:00,37.2,35.1,30.31,East,86,0.0,0.0,92,0.00,SCT,,0.00,0.0,WeatherDisplay:10.37,2013-05-26 08:51:00,
2013-05-26 04:56:00,37.0,34.6,30.31,East,86,0.0,0.0,91,0.00,SCT,,0.00,0.0,WeatherDisplay:10.37,2013-05-26 08:56:00,
2013-05-26 05:01:00,37.0,34.9,30.31,East,86,0.0,0.0,92,0.00,SCT,,0.00,0.0,WeatherDisplay:10.37,2013-05-26 09:01:00,
2013-05-26 05:06:00,37.0,34.9,30.31,East,86,0.0,0.0,92,0.00,SCT,,0.00,0.0,WeatherDisplay:10.37,2013-05-26 09:06:00,
2013-05-26 05:11:00,37.0,34.9,30.31,East,86,0.9,2.3,92,0.00,SCT,,0.00,0.0,WeatherDisplay:10.37,2013-05-26 09:11:00,
2013-05-26 05:16:00,37.0,34.9,30.31,East,86,0.2,1.1,92,0.00,SCT,,0.00,0.0,WeatherDisplay:10.37,2013-05-26 09:16:00,
2013-05-26 05:21:00,36.9,34.8,30.32,East,86,0.0,0.0,92,0.00,SCT,,0.00,0.0,WeatherDisplay:10.37,2013-05-26 09:21:00,
2013-05-26 05:26:00,36.9,34.8,30.32,East,86,0.1,1.1,92,0.00,SCT,,0.00,0.0,WeatherDisplay:10.37,2013-05-26 09:26:00,
2013-05-26 05:31:00,36.8,34.7,30.32,East,86,0.0,0.0,92,0.00,SCT,,0.00,0.0,WeatherDisplay:10.37,2013-05-26 09:31:00,
2013-05-26 05:36:00,36.8,34.7,30.32,East,86,0.0,1.1,92,0.00,SCT,,0.00,0.0,WeatherDisplay:10.37,2013-05-26 09:36:00,
2013-05-26 05:41:00,36.8,34.7,30.32,East,86,0.2,1.0,92,0.00,SCT,,0.00,0.0,WeatherDisplay:10.37,2013-05-26 09:41:00,
2013-05-26 05:46:00,36.7,34.6,30.32,East,86,0.6,1.1,92,0.00,SCT,,0.00,0.0,WeatherDisplay:10.37,2013-05-26 09:46:00,
2013-05-26 05:51:00,36.6,34.5,30.32,East,86,0.5,1.1,92,0.00,SCT,,0.00,0.0,WeatherDisplay:10.37,2013-05-26 09:51:00,
2013-05-26 05:56:00,36.6,34.5,30.32,East,86,0.0,0.0,92,0.00,SCT,,0.00,0.0,WeatherDisplay:10.37,2013-05-26 09:56:00,
2013-05-26 06:01:00,36.5,34.4,30.33,East,86,0.1,1.0,92,0.00,CLR,,0.00,0.0,WeatherDisplay:10.37,2013-05-26 10:01:00,
2013-05-26 06:06:00,36.5,34.4,30.32,East,86,0.0,1.1,92,0.00,CLR,,0.00,5.0,WeatherDisplay:10.37,2013-05-26 10:06:00,
2013-05-26 06:11:00,36.4,34.3,30.32,East,86,0.3,1.1,92,0.00,CLR,,0.00,7.0,WeatherDisplay:10.37,2013-05-26 10:11:00,
2013-05-26 06:16:00,36.4,34.3,30.33,East,86,0.7,2.3,92,0.00,CLR,,0.00,9.0,WeatherDisplay:10.37,2013-05-26 10:16:00,
2013-05-26 06:21:00,36.5,34.4,30.33,East,86,1.0,1.1,92,0.00,CLR,,0.00,9.0,WeatherDisplay:10.37,2013-05-26 10:21:00,
2013-05-26 06:26:00,36.5,34.4,30.33,East,86,0.5,1.1,92,0.00,CLR,,0.00,11.0,WeatherDisplay:10.37,2013-05-26 10:26:00,
2013-05-26 06:31:00,36.6,34.5,30.33,East,86,0.1,1.1,92,0.00,CLR,,0.00,14.0,WeatherDisplay:10.37,2013-05-26 10:31:00,
2013-05-26 06:36:00,36.7,34.6,30.33,East,86,0.0,0.0,92,0.00,CLR,,0.00,28.0,WeatherDisplay:10.37,2013-05-26 10:36:00,
2013-05-26 06:41:00,36.7,34.9,30.33,East,86,0.0,0.0,93,0.00,CLR,,0.00,35.0,WeatherDisplay:10.37,2013-05-26 10:41:00,
2013-05-26 06:46:00,37.0,35.2,30.33,East,86,0.0,0.0,93,0.00,CLR,,0.00,40.0,WeatherDisplay:10.37,2013-05-26 10:46:00,
2013-05-26 06:51:00,37.4,35.6,30.34,East,86,0.0,0.0,93,0.00,CLR,,0.00,42.0,WeatherDisplay:10.37,2013-05-26 10:51:00,
2013-05-26 06:56:00,37.9,36.1,30.34,East,86,0.1,1.1,93,0.00,CLR,,0.00,44.0,WeatherDisplay:10.37,2013-05-26 10:56:00,
2013-05-26 07:01:00,38.4,36.6,30.34,East,86,0.3,1.1,93,0.00,CLR,,0.00,46.0,WeatherDisplay:10.37,2013-05-26 11:01:00,
2013-05-26 07:06:00,39.1,37.2,30.34,East,86,0.0,0.0,93,0.00,CLR,,0.00,47.0,WeatherDisplay:10.37,2013-05-26 11:06:00,
2013-05-26 07:11:00,39.7,37.6,30.34,East,86,0.0,0.0,92,0.00,CLR,,0.00,49.0,WeatherDisplay:10.37,2013-05-26 11:11:00,
2013-05-26 07:16:00,40.5,38.4,30.34,East,86,0.0,0.0,92,0.00,CLR,,0.00,49.0,WeatherDisplay:10.37,2013-05-26 11:16:00,
2013-05-26 07:21:00,41.3,38.9,30.34,East,86,0.0,0.0,91,0.00,CLR,,0.00,70.0,WeatherDisplay:10.37,2013-05-26 11:21:00,
2013-05-26 07:26:00,42.2,39.8,30.34,NE,51,0.9,1.1,91,0.00,CLR,,0.00,206.0,WeatherDisplay:10.37,2013-05-26 11:26:00,
2013-05-26 07:31:00,43.1,40.4,30.34,North,5,0.5,2.3,90,0.00,CLR,,0.00,220.0,WeatherDisplay:10.37,2013-05-26 11:31:00,
2013-05-26 07:36:00,43.9,40.6,30.35,North,5,0.0,0.0,88,0.00,CLR,,0.00,169.0,WeatherDisplay:10.37,2013-05-26 11:36:00,
2013-05-26 07:41:00,44.7,41.4,30.34,North,5,0.4,1.1,88,0.00,CLR,,0.00,251.0,WeatherDisplay:10.37,2013-05-26 11:41:00,
2013-05-26 07:46:00,45.4,41.5,30.34,NNW,340,1.4,2.3,86,0.00,CLR,,0.00,264.0,WeatherDisplay:10.37,2013-05-26 11:46:00,
2013-05-26 07:51:00,46.0,41.7,30.35,NNW,340,0.1,1.1,85,0.00,CLR,,0.00,188.0,WeatherDisplay:10.37,2013-05-26 11:51:00,
2013-05-26 07:56:00,46.6,42.3,30.34,NNW,340,0.9,1.0,85,0.00,CLR,,0.00,292.0,WeatherDisplay:10.37,2013-05-26 11:56:00,
2013-05-26 08:01:00,47.1,42.2,30.34,West,265,0.7,3.5,83,0.00,CLR,,0.00,297.0,WeatherDisplay:10.37,2013-05-26 12:01:00,
2013-05-26 08:06:00,47.7,42.8,30.34,West,265,0.4,1.1,83,0.00,CLR,,0.00,322.0,WeatherDisplay:10.37,2013-05-26 12:06:00,
2013-05-26 08:11:00,48.2,42.6,30.34,West,265,0.5,2.3,81,0.00,CLR,,0.00,339.0,WeatherDisplay:10.37,2013-05-26 12:11:00,
2013-05-26 08:16:00,48.8,42.9,30.34,West,276,2.0,3.5,80,0.00,CLR,,0.00,357.0,WeatherDisplay:10.37,2013-05-26 12:16:00,
2013-05-26 08:21:00,49.8,42.9,30.33,NW,317,0.9,2.3,77,0.00,CLR,,0.00,373.0,WeatherDisplay:10.37,2013-05-26 12:21:00,
2013-05-26 08:26:00,50.2,43.3,30.33,NW,317,0.3,1.1,77,0.00,CLR,,0.00,390.0,WeatherDisplay:10.37,2013-05-26 12:26:00,
2013-05-26 08:31:00,51.0,43.0,30.33,NNE,19,2.2,3.5,74,0.00,CLR,,0.00,410.0,WeatherDisplay:10.37,2013-05-26 12:31:00,
2013-05-26 08:36:00,51.7,42.6,30.33,WNW,296,1.9,3.0,71,0.00,CLR,,0.00,422.0,WeatherDisplay:10.37,2013-05-26 12:36:00,
2013-05-26 08:41:00,52.1,42.6,30.34,North,5,3.0,5.0,70,0.00,CLR,,0.00,439.0,WeatherDisplay:10.37,2013-05-26 12:41:00,
2013-05-26 08:46:00,52.2,41.6,30.34,WNW,294,2.5,3.5,67,0.00,CLR,,0.00,457.0,WeatherDisplay:10.37,2013-05-26 12:46:00,
2013-05-26 08:51:00,52.5,41.1,30.34,NNW,333,3.1,3.5,65,0.00,CLR,,0.00,471.0,WeatherDisplay:10.37,2013-05-26 12:51:00,
2013-05-26 08:56:00,53.0,41.5,30.34,NNW,348,2.9,3.5,65,0.00,CLR,,0.00,489.0,WeatherDisplay:10.37,2013-05-26 12:56:00,
2013-05-26 09:01:00,53.5,40.8,30.34,NNE,21,1.7,3.5,62,0.00,CLR,,0.00,506.0,WeatherDisplay:10.37,2013-05-26 13:01:00,
2013-05-26 09:06:00,53.9,42.0,30.34,NE,35,2.6,3.5,64,0.00,CLR,,0.00,522.0,WeatherDisplay:10.37,2013-05-26 13:06:00,
2013-05-26 09:11:00,53.7,41.0,30.34,NW,311,3.6,3.6,62,0.00,CLR,,0.00,534.0,WeatherDisplay:10.37,2013-05-26 13:11:00,
2013-05-26 09:16:00,54.2,41.9,30.34,NW,319,4.3,5.8,63,0.00,CLR,,0.00,552.0,WeatherDisplay:10.37,2013-05-26 13:16:00,
2013-05-26 09:21:00,54.7,40.2,30.34,NW,321,1.5,5.0,58,0.00,CLR,,0.00,566.0,WeatherDisplay:10.37,2013-05-26 13:21:00,
2013-05-26 09:26:00,55.6,42.8,30.34,NE,34,1.9,4.6,62,0.00,CLR,,0.00,580.0,WeatherDisplay:10.37,2013-05-26 13:26:00,
2013-05-26 09:31:00,55.5,42.3,30.33,NNW,329,5.3,8.1,61,0.00,CLR,,0.00,599.0,WeatherDisplay:10.37,2013-05-26 13:31:00,
2013-05-26 09:36:00,55.8,40.8,30.34,North,5,3.6,5.8,57,0.00,CLR,,0.00,615.0,WeatherDisplay:10.37,2013-05-26 13:36:00,
2013-05-26 09:41:00,56.0,41.4,30.34,NNE,24,4.2,5.0,58,0.00,CLR,,0.00,629.0,WeatherDisplay:10.37,2013-05-26 13:41:00,
2013-05-26 09:46:00,56.5,38.6,30.35,ESE,123,4.7,6.9,51,0.00,CLR,,0.00,643.0,WeatherDisplay:10.37,2013-05-26 13:46:00,
2013-05-26 09:51:00,56.5,38.6,30.35,ENE,71,4.0,4.6,51,0.00,CLR,,0.00,659.0,WeatherDisplay:10.37,2013-05-26 13:51:00,
2013-05-26 09:56:00,56.7,39.7,30.35,NNE,30,4.8,6.9,53,0.00,CLR,,0.00,675.0,WeatherDisplay:10.37,2013-05-26 13:56:00,
2013-05-26 10:01:00,56.4,40.0,30.35,NE,42,4.6,7.0,54,0.00,CLR,,0.00,689.0,WeatherDisplay:10.37,2013-05-26 14:01:00,
2013-05-26 10:06:00,56.7,40.2,30.35,North,360,4.2,7.0,54,0.00,CLR,,0.00,705.0,WeatherDisplay:10.37,2013-05-26 14:06:00,
2013-05-26 10:11:00,57.1,38.6,30.36,NE,40,3.3,4.6,50,0.00,CLR,,0.00,719.0,WeatherDisplay:10.37,2013-05-26 14:11:00,
2013-05-26 10:16:00,57.5,40.0,30.35,NE,37,3.7,4.6,52,0.00,CLR,,0.00,731.0,WeatherDisplay:10.37,2013-05-26 14:16:00,
2013-05-26 10:21:00,57.0,39.0,30.35,NNE,19,5.4,8.0,51,0.00,CLR,,0.00,742.0,WeatherDisplay:10.37,2013-05-26 14:21:00,
2013-05-26 10:26:00,57.4,41.4,30.35,NW,323,4.4,5.8,55,0.00,CLR,,0.00,758.0,WeatherDisplay:10.37,2013-05-26 14:26:00,
2013-05-26 10:31:00,57.7,40.2,30.35,North,355,3.0,6.0,52,0.00,CLR,,0.00,768.0,WeatherDisplay:10.37,2013-05-26 14:31:00,
2013-05-26 10:36:00,57.9,39.9,30.35,North,355,5.0,5.0,51,0.00,CLR,,0.00,784.0,WeatherDisplay:10.37,2013-05-26 14:36:00,
2013-05-26 10:41:00,58.0,38.9,30.35,NNE,19,2.2,4.6,49,0.00,CLR,,0.00,798.0,WeatherDisplay:10.37,2013-05-26 14:41:00,
2013-05-26 10:46:00,57.6,38.6,30.35,North,355,5.4,10.0,49,0.00,CLR,,0.00,809.0,WeatherDisplay:10.37,2013-05-26 14:46:00,
2013-05-26 10:51:00,57.7,40.7,30.35,NW,321,3.3,5.8,53,0.00,CLR,,0.00,819.0,WeatherDisplay:10.37,2013-05-26 14:51:00,
2013-05-26 10:56:00,58.0,39.5,30.34,NNW,327,5.9,6.9,50,0.00,CLR,,0.00,830.0,WeatherDisplay:10.37,2013-05-26 14:56:00,
2013-05-26 11:01:00,57.8,41.3,30.34,NW,311,3.5,4.6,54,0.00,CLR,,0.00,840.0,WeatherDisplay:10.37,2013-05-26 15:01:00,
2013-05-26 11:06:00,58.2,40.1,30.33,NNE,13,5.1,8.1,51,0.00,CLR,,0.00,856.0,WeatherDisplay:10.37,2013-05-26 15:06:00,
2013-05-26 11:11:00,58.1,40.6,30.34,North,5,1.9,3.5,52,0.00,CLR,,0.00,865.0,WeatherDisplay:10.37,2013-05-26 15:11:00,
2013-05-26 11:16:00,58.7,38.5,30.34,NNW,329,5.7,7.0,47,0.00,CLR,,0.00,877.0,WeatherDisplay:10.37,2013-05-26 15:16:00,
2013-05-26 11:21:00,58.8,39.1,30.34,NNW,342,4.3,9.2,48,0.00,CLR,,0.00,886.0,WeatherDisplay:10.37,2013-05-26 15:21:00,
2013-05-26 11:26:00,59.1,38.3,30.34,NE,36,5.1,8.1,46,0.00,CLR,,0.00,893.0,WeatherDisplay:10.37,2013-05-26 15:26:00,
2013-05-26 11:31:00,58.8,39.1,30.34,WNW,290,2.2,7.0,48,0.00,CLR,,0.00,902.0,WeatherDisplay:10.37,2013-05-26 15:31:00,
2013-05-26 11:36:00,58.7,36.8,30.35,NNE,21,3.1,6.9,44,0.00,CLR,,0.00,606.0,WeatherDisplay:10.37,2013-05-26 15:36:00,
2013-05-26 11:41:00,59.6,38.8,30.34,North,350,4.5,6.9,46,0.00,CLR,,0.00,578.0,WeatherDisplay:10.37,2013-05-26 15:41:00,
2013-05-26 11:46:00,59.8,38.4,30.34,NNE,26,2.9,4.6,45,0.00,CLR,,0.00,171.0,WeatherDisplay:10.37,2013-05-26 15:46:00,
2013-05-26 11:51:00,59.8,37.2,30.34,NW,315,7.8,11.5,43,0.00,CLR,,0.00,937.0,WeatherDisplay:10.37,2013-05-26 15:51:00,
2013-05-26 11:56:00,59.7,40.0,30.35,NW,309,3.2,4.6,48,0.00,CLR,,0.00,731.0,WeatherDisplay:10.37,2013-05-26 15:56:00,
2013-05-26 12:01:00,60.2,39.9,30.34,West,281,5.1,8.0,47,0.00,FEW,,0.00,731.0,WeatherDisplay:10.37,2013-05-26 16:01:00,
2013-05-26 12:06:00,60.2,40.4,30.35,NNW,329,5.5,8.0,48,0.00,FEW,,0.00,606.0,WeatherDisplay:10.37,2013-05-26 16:06:00,
2013-05-26 12:11:00,60.4,37.2,30.34,NNW,328,6.0,8.1,42,0.00,FEW,,0.00,889.0,WeatherDisplay:10.37,2013-05-26 16:11:00,
2013-05-26 12:16:00,60.3,38.9,30.34,NNW,344,4.3,8.1,45,0.00,FEW,,0.00,963.0,WeatherDisplay:10.37,2013-05-26 16:16:00,
2013-05-26 12:21:00,60.5,39.0,30.34,WNW,288,6.6,9.2,45,0.00,FEW,,0.00,619.0,WeatherDisplay:10.37,2013-05-26 16:21:00,
2013-05-26 12:26:00,60.7,39.2,30.34,NW,324,5.0,11.5,45,0.00,FEW,,0.00,105.0,WeatherDisplay:10.37,2013-05-26 16:26:00,
2013-05-26 12:31:00,61.3,39.8,30.34,North,360,3.7,6.0,45,0.00,FEW,,0.00,105.0,WeatherDisplay:10.37,2013-05-26 16:31:00,
2013-05-26 12:37:00,61.5,38.2,30.34,North,6,7.0,10.0,42,0.00,FEW,,0.00,661.0,WeatherDisplay:10.37,2013-05-26 16:37:00,
2013-05-26 12:42:00,61.6,38.3,30.34,NW,323,8.4,8.4,42,0.00,FEW,,0.00,661.0,WeatherDisplay:10.37,2013-05-26 16:42:00,
2013-05-26 12:47:00,61.5,38.2,30.33,West,275,3.5,6.9,42,0.00,FEW,,0.00,97.0,WeatherDisplay:10.37,2013-05-26 16:47:00,
2013-05-26 12:52:00,61.4,38.1,30.34,North,5,5.5,8.1,42,0.00,FEW,,0.00,137.0,WeatherDisplay:10.37,2013-05-26 16:52:00,
2013-05-26 12:57:00,61.6,38.9,30.33,NNW,342,2.1,5.8,43,0.00,FEW,,0.00,211.0,WeatherDisplay:10.37,2013-05-26 16:57:00,
2013-05-26 13:02:00,61.7,36.5,30.33,NW,309,3.2,10.4,39,0.00,FEW,,0.00,114.0,WeatherDisplay:10.37,2013-05-26 17:02:00,
2013-05-26 13:07:00,61.3,36.8,30.33,NW,313,2.8,6.9,40,0.00,FEW,,0.00,761.0,WeatherDisplay:10.37,2013-05-26 17:07:00,
2013-05-26 13:12:00,62.0,39.8,30.33,NW,318,5.7,6.9,44,0.00,FEW,,0.00,626.0,WeatherDisplay:10.37,2013-05-26 17:12:00,
2013-05-26 13:17:00,61.6,40.0,30.34,NNE,24,4.5,10.0,45,0.00,FEW,,0.00,197.0,WeatherDisplay:10.37,2013-05-26 17:17:00,
2013-05-26 13:22:00,62.3,38.3,30.33,NNW,338,5.6,9.2,41,0.00,FEW,,0.00,149.0,WeatherDisplay:10.37,2013-05-26 17:22:00,
2013-05-26 13:27:00,62.5,39.1,30.34,North,5,6.0,9.2,42,0.00,FEW,,0.00,98.0,WeatherDisplay:10.37,2013-05-26 17:27:00,
2013-05-26 13:32:00,62.8,36.8,30.34,NNW,332,6.0,9.2,38,0.00,FEW,,0.00,100.0,WeatherDisplay:10.37,2013-05-26 17:32:00,
2013-05-26 13:37:00,63.0,38.3,30.34,NW,314,6.6,9.2,40,0.00,FEW,,0.00,285.0,WeatherDisplay:10.37,2013-05-26 17:37:00,
2013-05-26 13:42:00,62.7,37.4,30.34,NE,34,4.5,10.4,39,0.00,FEW,,0.00,278.0,WeatherDisplay:10.37,2013-05-26 17:42:00,
2013-05-26 13:47:00,62.1,36.8,30.34,NW,318,7.0,10.4,39,0.00,FEW,,0.00,582.0,WeatherDisplay:10.37,2013-05-26 17:47:00,
2013-05-26 13:52:00,62.3,35.7,30.34,NW,313,5.8,10.4,37,0.00,FEW,,0.00,582.0,WeatherDisplay:10.37,2013-05-26 17:52:00,
2013-05-26 13:57:00,62.1,38.7,30.34,NNE,17,4.4,5.8,42,0.00,FEW,,0.00,441.0,WeatherDisplay:10.37,2013-05-26 17:57:00,
2013-05-26 14:02:00,62.3,35.7,30.33,NW,316,5.6,9.2,37,0.00,SCT,,0.00,237.0,WeatherDisplay:10.37,2013-05-26 18:02:00,
2013-05-26 14:07:00,62.2,35.6,30.33,NNE,25,7.6,11.5,37,0.00,SCT,,0.00,877.0,WeatherDisplay:10.37,2013-05-26 18:07:00,
2013-05-26 14:12:00,62.8,38.1,30.33,NW,311,5.0,8.1,40,0.00,SCT,,0.00,432.0,WeatherDisplay:10.37,2013-05-26 18:12:00,
2013-05-26 14:17:00,62.6,35.3,30.33,NW,315,7.4,8.1,36,0.00,SCT,,0.00,432.0,WeatherDisplay:10.37,2013-05-26 18:17:00,
2013-05-26 14:22:00,62.8,36.1,30.33,NNW,348,5.3,5.8,37,0.00,SCT,,0.00,480.0,WeatherDisplay:10.37,2013-05-26 18:22:00,
2013-05-26 14:27:00,62.9,34.8,30.33,North,11,1.3,5.8,35,0.00,SCT,,0.00,253.0,WeatherDisplay:10.37,2013-05-26 18:27:00,
2013-05-26 14:32:00,63.2,37.2,30.33,NE,34,6.2,11.5,38,0.00,SCT,,0.00,244.0,WeatherDisplay:10.37,2013-05-26 18:32:00,
2013-05-26 14:37:00,62.7,33.2,30.33,NE,45,4.8,9.2,33,0.00,SCT,,0.00,733.0,WeatherDisplay:10.37,2013-05-26 18:37:00,
2013-05-26 14:42:00,62.7,33.2,30.33,NNE,17,3.2,6.0,33,0.00,SCT,,0.00,733.0,WeatherDisplay:10.37,2013-05-26 18:42:00,
2013-05-26 14:47:00,62.8,37.5,30.32,North,355,4.3,10.4,39,0.00,SCT,,0.00,789.0,WeatherDisplay:10.37,2013-05-26 18:47:00,
2013-05-26 14:52:00,63.2,35.8,30.32,NNW,344,5.1,8.1,36,0.00,SCT,,0.00,798.0,WeatherDisplay:10.37,2013-05-26 18:52:00,
2013-05-26 14:57:00,62.9,38.2,30.32,NNW,329,4.0,5.8,40,0.00,SCT,,0.00,810.0,WeatherDisplay:10.37,2013-05-26 18:57:00,
2013-05-26 15:02:00,62.8,38.7,30.32,NW,320,1.7,6.9,41,0.00,SCT,,0.00,874.0,WeatherDisplay:10.37,2013-05-26 19:02:00,
2013-05-26 15:07:00,63.7,38.9,30.32,North,355,5.1,6.9,40,0.00,SCT,,0.00,870.0,WeatherDisplay:10.37,2013-05-26 19:07:00,
2013-05-26 15:12:00,63.8,35.6,30.32,NNW,333,3.5,6.9,35,0.00,SCT,,0.00,758.0,WeatherDisplay:10.37,2013-05-26 19:12:00,
2013-05-26 15:17:00,62.8,34.0,30.32,North,349,3.9,5.0,34,0.00,SCT,,0.00,821.0,WeatherDisplay:10.37,2013-05-26 19:17:00,
2013-05-26 15:22:00,62.9,38.8,30.32,NW,324,4.9,8.1,41,0.00,SCT,,0.00,872.0,WeatherDisplay:10.37,2013-05-26 19:22:00,
2013-05-26 15:27:00,63.4,36.0,30.32,NNW,348,4.9,8.1,36,0.00,SCT,,0.00,844.0,WeatherDisplay:10.37,2013-05-26 19:27:00,
2013-05-26 15:32:00,63.3,37.2,30.32,WNW,286,2.6,8.1,38,0.00,SCT,,0.00,854.0,WeatherDisplay:10.37,2013-05-26 19:32:00,
2013-05-26 15:37:00,63.5,37.4,30.31,NNE,26,4.0,6.9,38,0.00,SCT,,0.00,803.0,WeatherDisplay:10.37,2013-05-26 19:37:00,
2013-05-26 15:42:00,63.3,38.6,30.31,North,5,2.9,6.0,40,0.00,SCT,,0.00,791.0,WeatherDisplay:10.37,2013-05-26 19:42:00,
2013-05-26 15:47:00,63.5,37.4,30.31,NNW,328,2.6,4.6,38,0.00,SCT,,0.00,837.0,WeatherDisplay:10.37,2013-05-26 19:47:00,
2013-05-26 15:52:00,63.9,37.8,30.31,NNW,334,8.5,10.4,38,0.00,SCT,,0.00,788.0,WeatherDisplay:10.37,2013-05-26 19:52:00,
2013-05-26 15:57:00,63.1,35.0,30.31,NNE,31,1.4,3.5,35,0.00,SCT,,0.00,664.0,WeatherDisplay:10.37,2013-05-26 19:57:00,
2013-05-26 16:02:00,63.8,39.0,30.31,NNW,336,6.1,8.1,40,0.00,CLR,,0.00,285.0,WeatherDisplay:10.37,2013-05-26 20:02:00,
2013-05-26 16:07:00,63.8,37.7,30.31,NNW,346,3.6,11.5,38,0.00,CLR,,0.00,427.0,WeatherDisplay:10.37,2013-05-26 20:07:00,
2013-05-26 16:12:00,63.8,39.0,30.31,North,5,3.3,3.5,40,0.00,CLR,,0.00,211.0,WeatherDisplay:10.37,2013-05-26 20:12:00,
2013-05-26 16:17:00,63.8,37.0,30.31,WNW,286,5.4,8.1,37,0.00,CLR,,0.00,367.0,WeatherDisplay:10.37,2013-05-26 20:17:00,
2013-05-26 16:22:00,63.4,36.0,30.31,NE,49,4.6,9.2,36,0.00,CLR,,0.00,260.0,WeatherDisplay:10.37,2013-05-26 20:22:00,
2013-05-26 16:27:00,63.9,37.8,30.30,North,360,3.1,8.1,38,0.00,CLR,,0.00,158.0,WeatherDisplay:10.37,2013-05-26 20:27:00,
2013-05-26 16:32:00,63.7,36.2,30.30,NNW,333,2.7,5.0,36,0.00,CLR,,0.00,178.0,WeatherDisplay:10.37,2013-05-26 20:32:00,
2013-05-26 16:37:00,63.9,37.1,30.30,North,360,4.6,9.2,37,0.00,CLR,,0.00,243.0,WeatherDisplay:10.37,2013-05-26 20:37:00,
2013-05-26 16:42:00,63.6,34.7,30.30,NE,55,3.6,6.9,34,0.00,CLR,,0.00,301.0,WeatherDisplay:10.37,2013-05-26 20:42:00,
2013-05-26 16:47:00,63.6,33.9,30.30,East,97,4.0,4.0,33,0.00,CLR,,0.00,225.0,WeatherDisplay:10.37,2013-05-26 20:47:00,
2013-05-26 16:52:00,63.4,36.7,30.30,NNW,338,3.6,3.6,37,0.00,CLR,,0.00,253.0,WeatherDisplay:10.37,2013-05-26 20:52:00,
2013-05-26 16:57:00,63.8,38.4,30.30,NNE,24,4.0,9.2,39,0.00,CLR,,0.00,246.0,WeatherDisplay:10.37,2013-05-26 20:57:00,
2013-05-26 17:02:00,63.6,35.4,30.29,NW,313,2.2,3.5,35,0.00,SCT,,0.00,174.0,WeatherDisplay:10.37,2013-05-26 21:02:00,
2013-05-26 17:07:00,63.8,35.6,30.30,NNE,30,5.9,6.9,35,0.00,SCT,,0.00,329.0,WeatherDisplay:10.37,2013-05-26 21:07:00,
2013-05-26 17:12:00,63.6,37.5,30.29,North,355,2.1,5.8,38,0.00,SCT,,0.00,176.0,WeatherDisplay:10.37,2013-05-26 21:12:00,
2013-05-26 17:17:00,63.8,34.9,30.29,North,350,4.6,8.1,34,0.00,SCT,,0.00,186.0,WeatherDisplay:10.37,2013-05-26 21:17:00,
2013-05-26 17:22:00,63.5,37.4,30.29,WNW,297,5.4,8.1,38,0.00,SCT,,0.00,165.0,WeatherDisplay:10.37,2013-05-26 21:22:00,
2013-05-26 17:27:00,63.4,36.0,30.29,NW,323,4.4,4.6,36,0.00,SCT,,0.00,153.0,WeatherDisplay:10.37,2013-05-26 21:27:00,
2013-05-26 17:32:00,63.3,35.9,30.29,NNW,327,3.3,6.9,36,0.00,SCT,,0.00,186.0,WeatherDisplay:10.37,2013-05-26 21:32:00,
2013-05-26 17:37:00,63.3,36.6,30.29,NNE,21,3.5,4.0,37,0.00,SCT,,0.00,295.0,WeatherDisplay:10.37,2013-05-26 21:37:00,
2013-05-26 17:42:00,63.4,36.0,30.29,NW,324,2.6,4.0,36,0.00,SCT,,0.00,190.0,WeatherDisplay:10.37,2013-05-26 21:42:00,
2013-05-26 17:47:00,63.2,35.1,30.29,NNW,332,2.6,3.5,35,0.00,SCT,,0.00,334.0,WeatherDisplay:10.37,2013-05-26 21:47:00,
2013-05-26 17:52:00,63.1,37.1,30.29,ENE,73,1.0,2.3,38,0.00,SCT,,0.00,202.0,WeatherDisplay:10.37,2013-05-26 21:52:00,
2013-05-26 17:57:00,63.5,34.6,30.29,North,355,4.4,4.6,34,0.00,SCT,,0.00,132.0,WeatherDisplay:10.37,2013-05-26 21:57:00,
2013-05-26 18:02:00,62.7,35.3,30.29,NNE,16,0.9,2.3,36,0.00,SCT,,0.00,130.0,WeatherDisplay:10.37,2013-05-26 22:02:00,
2013-05-26 18:07:00,62.3,34.3,30.29,ENE,77,0.6,2.3,35,0.00,SCT,,0.00,137.0,WeatherDisplay:10.37,2013-05-26 22:07:00,
2013-05-26 18:12:00,62.3,35.0,30.28,NNE,15,2.9,4.6,36,0.00,SCT,,0.00,139.0,WeatherDisplay:10.37,2013-05-26 22:12:00,
2013-05-26 18:17:00,62.3,35.0,30.28,North,11,4.1,5.8,36,0.00,SCT,,0.00,195.0,WeatherDisplay:10.37,2013-05-26 22:17:00,
2013-05-26 18:22:00,62.0,36.1,30.28,NNW,342,3.4,6.0,38,0.00,SCT,,0.00,179.0,WeatherDisplay:10.37,2013-05-26 22:22:00,
2013-05-26 18:27:00,62.3,34.3,30.28,NNW,344,2.8,4.6,35,0.00,SCT,,0.00,257.0,WeatherDisplay:10.37,2013-05-26 22:27:00,
2013-05-26 18:32:00,62.8,34.7,30.28,NNW,346,4.6,5.8,35,0.00,SCT,,0.00,366.0,WeatherDisplay:10.37,2013-05-26 22:32:00,
2013-05-26 18:37:00,62.9,33.3,30.28,NNW,340,1.3,4.0,33,0.00,SCT,,0.00,353.0,WeatherDisplay:10.37,2013-05-26 22:37:00,
2013-05-26 18:42:00,63.0,32.7,30.27,NNW,342,1.1,3.0,32,0.00,SCT,,0.00,253.0,WeatherDisplay:10.37,2013-05-26 22:42:00,
2013-05-26 18:47:00,62.9,35.5,30.27,NNE,17,3.6,4.6,36,0.00,SCT,,0.00,146.0,WeatherDisplay:10.37,2013-05-26 22:47:00,
2013-05-26 18:52:00,62.3,33.6,30.27,ENE,63,4.2,5.8,34,0.00,SCT,,0.00,88.0,WeatherDisplay:10.37,2013-05-26 22:52:00,
2013-05-26 18:57:00,61.8,33.8,30.27,NNW,348,2.2,4.6,35,0.00,SCT,,0.00,98.0,WeatherDisplay:10.37,2013-05-26 22:57:00,
2013-05-26 19:02:00,61.6,32.2,30.27,NE,44,2.3,3.5,33,0.00,BKN,,0.00,81.0,WeatherDisplay:10.37,2013-05-26 23:02:00,
2013-05-26 19:07:00,61.4,33.5,30.27,NNE,14,2.1,4.0,35,0.00,BKN,,0.00,81.0,WeatherDisplay:10.37,2013-05-26 23:07:00,
2013-05-26 19:12:00,61.2,33.3,30.27,North,355,0.3,2.0,35,0.00,BKN,,0.00,74.0,WeatherDisplay:10.37,2013-05-26 23:12:00,
2013-05-26 19:17:00,61.1,33.9,30.27,NNE,32,2.1,3.5,36,0.00,BKN,,0.00,69.0,WeatherDisplay:10.37,2013-05-26 23:17:00,
2013-05-26 19:22:00,60.9,35.1,30.27,NNE,18,2.3,4.6,38,0.00,BKN,,0.00,65.0,WeatherDisplay:10.37,2013-05-26 23:22:00,
2013-05-26 19:27:00,60.7,33.6,30.27,NE,35,1.0,2.3,36,0.00,BKN,,0.00,60.0,WeatherDisplay:10.37,2013-05-26 23:27:00,
2013-05-26 19:32:00,60.7,34.3,30.27,NE,44,0.2,1.1,37,0.00,BKN,,0.00,51.0,WeatherDisplay:10.37,2013-05-26 23:32:00,
2013-05-26 19:37:00,60.4,33.3,30.27,NE,34,2.0,3.5,36,0.00,BKN,,0.00,49.0,WeatherDisplay:10.37,2013-05-26 23:37:00,
2013-05-26 19:42:00,60.5,33.4,30.27,ENE,61,2.5,3.5,36,0.00,BKN,,0.00,47.0,WeatherDisplay:10.37,2013-05-26 23:42:00,
2013-05-26 19:47:00,60.3,33.9,30.27,NE,38,2.0,3.5,37,0.00,BKN,,0.00,44.0,WeatherDisplay:10.37,2013-05-26 23:47:00,
2013-05-26 19:52:00,60.1,33.7,30.27,NE,38,0.2,1.1,37,0.00,BKN,,0.00,44.0,WeatherDisplay:10.37,2013-05-26 23:52:00,
2013-05-26 19:57:00,59.9,34.2,30.27,NE,38,0.4,2.0,38,0.00,BKN,,0.00,40.0,WeatherDisplay:10.37,2013-05-26 23:57:00,
2013-05-26 20:02:00,59.9,34.9,30.27,NE,35,0.9,5.0,39,0.00,BKN,,0.00,35.0,WeatherDisplay:10.37,2013-05-27 00:02:00,
2013-05-26 20:07:00,59.7,33.4,30.26,North,360,0.7,1.1,37,0.00,BKN,,0.00,30.0,WeatherDisplay:10.37,2013-05-27 00:07:00,
2013-05-26 20:12:00,59.5,33.9,30.26,North,360,0.6,1.1,38,0.00,BKN,,0.00,26.0,WeatherDisplay:10.37,2013-05-27 00:12:00,
2013-05-26 20:17:00,59.4,34.4,30.26,North,360,0.4,1.1,39,0.00,BKN,,0.00,21.0,WeatherDisplay:10.37,2013-05-27 00:17:00,
2013-05-26 20:22:00,59.2,34.2,30.26,North,360,0.3,2.3,39,0.00,BKN,,0.00,16.0,WeatherDisplay:10.37,2013-05-27 00:22:00,
2013-05-26 20:27:00,58.9,34.6,30.26,North,360,0.9,2.3,40,0.00,BKN,,0.00,12.0,WeatherDisplay:10.37,2013-05-27 00:27:00,
2013-05-26 20:33:00,58.5,35.5,30.26,North,360,0.0,2.3,42,0.00,BKN,,0.00,11.0,WeatherDisplay:10.37,2013-05-27 00:33:00,
2013-05-26 20:38:00,58.1,35.7,30.26,North,9,0.1,0.0,43,0.00,BKN,,0.00,7.0,WeatherDisplay:10.37,2013-05-27 00:38:00,
2013-05-26 20:43:00,57.9,35.5,30.26,North,9,0.0,1.1,43,0.00,BKN,,0.00,5.0,WeatherDisplay:10.37,2013-05-27 00:43:00,
2013-05-26 20:48:00,57.8,36.0,30.26,North,9,0.4,2.3,44,0.00,BKN,,0.00,0.0,WeatherDisplay:10.37,2013-05-27 00:48:00,
2013-05-26 20:53:00,57.4,36.2,30.25,North,9,0.0,0.0,45,0.00,BKN,,0.00,0.0,WeatherDisplay:10.37,2013-05-27 00:53:00,
2013-05-26 20:58:00,57.1,36.5,30.26,North,9,0.0,1.1,46,0.00,BKN,,0.00,0.0,WeatherDisplay:10.37,2013-05-27 00:58:00,
2013-05-26 21:03:00,56.4,36.9,30.25,North,9,0.2,1.1,48,0.00,BKN,,0.00,0.0,WeatherDisplay:10.37,2013-05-27 01:03:00,
2013-05-26 21:08:00,55.9,37.0,30.26,North,9,0.0,1.1,49,0.00,BKN,,0.00,0.0,WeatherDisplay:10.37,2013-05-27 01:08:00,
2013-05-26 21:13:00,55.5,37.1,30.26,North,9,0.0,0.0,50,0.00,BKN,,0.00,0.0,WeatherDisplay:10.37,2013-05-27 01:13:00,
2013-05-26 21:18:00,55.3,37.0,30.26,North,9,0.6,1.1,50,0.00,BKN,,0.00,0.0,WeatherDisplay:10.37,2013-05-27 01:18:00,
2013-05-26 21:23:00,54.7,37.4,30.26,North,9,0.0,0.0,52,0.00,BKN,,0.00,0.0,WeatherDisplay:10.37,2013-05-27 01:23:00,
2013-05-26 21:28:00,54.2,37.9,30.26,North,9,0.0,0.0,54,0.00,BKN,,0.00,0.0,WeatherDisplay:10.37,2013-05-27 01:28:00,
2013-05-26 21:33:00,54.1,38.7,30.26,North,9,0.0,0.0,56,0.00,BKN,,0.00,0.0,WeatherDisplay:10.37,2013-05-27 01:33:00,
2013-05-26 21:38:00,53.6,38.7,30.27,North,9,0.0,0.0,57,0.00,BKN,,0.00,0.0,WeatherDisplay:10.37,2013-05-27 01:38:00,
2013-05-26 21:43:00,53.2,38.8,30.27,North,9,0.0,0.0,58,0.00,BKN,,0.00,0.0,WeatherDisplay:10.37,2013-05-27 01:43:00,
2013-05-26 21:48:00,53.0,38.6,30.26,North,9,0.0,0.0,58,0.00,BKN,,0.00,0.0,WeatherDisplay:10.37,2013-05-27 01:48:00,
2013-05-26 21:53:00,53.1,38.7,30.27,North,9,0.0,0.0,58,0.00,BKN,,0.00,0.0,WeatherDisplay:10.37,2013-05-27 01:53:00,
2013-05-26 21:58:00,53.2,39.2,30.27,NE,35,0.4,1.1,59,0.00,BKN,,0.00,0.0,WeatherDisplay:10.37,2013-05-27 01:58:00,
2013-05-26 22:03:00,53.1,39.1,30.27,NE,35,0.3,1.1,59,0.00,BKN,,0.00,0.0,WeatherDisplay:10.37,2013-05-27 02:03:00,
2013-05-26 22:08:00,53.0,39.5,30.27,NE,35,0.0,1.1,60,0.00,BKN,,0.00,0.0,WeatherDisplay:10.37,2013-05-27 02:08:00,
2013-05-26 22:13:00,52.9,39.4,30.27,NE,35,0.0,1.1,60,0.00,BKN,,0.00,0.0,WeatherDisplay:10.37,2013-05-27 02:13:00,
2013-05-26 22:18:00,52.3,39.7,30.27,NE,35,0.0,0.0,62,0.00,BKN,,0.00,0.0,WeatherDisplay:10.37,2013-05-27 02:18:00,
2013-05-26 22:23:00,51.8,39.6,30.28,NE,35,0.0,0.0,63,0.00,BKN,,0.00,0.0,WeatherDisplay:10.37,2013-05-27 02:23:00,
2013-05-26 22:28:00,51.7,39.9,30.28,NE,35,0.3,1.1,64,0.00,BKN,,0.00,0.0,WeatherDisplay:10.37,2013-05-27 02:28:00,
2013-05-26 22:33:00,51.7,39.5,30.28,NE,35,0.0,0.0,63,0.00,BKN,,0.00,0.0,WeatherDisplay:10.37,2013-05-27 02:33:00,
2013-05-26 22:38:00,51.7,39.5,30.28,NE,35,0.0,0.0,63,0.00,BKN,,0.00,0.0,WeatherDisplay:10.37,2013-05-27 02:38:00,
2013-05-26 22:43:00,51.4,40.0,30.28,NE,35,0.0,0.0,65,0.00,BKN,,0.00,0.0,WeatherDisplay:10.37,2013-05-27 02:43:00,
2013-05-26 22:48:00,51.0,39.6,30.28,NE,35,0.1,1.1,65,0.00,BKN,,0.00,0.0,WeatherDisplay:10.37,2013-05-27 02:48:00,
2013-05-26 22:53:00,51.0,39.6,30.28,NE,35,0.0,0.0,65,0.00,BKN,,0.00,0.0,WeatherDisplay:10.37,2013-05-27 02:53:00,
2013-05-26 22:58:00,50.9,39.5,30.28,NE,35,0.0,1.1,65,0.00,BKN,,0.00,0.0,WeatherDisplay:10.37,2013-05-27 02:58:00,
2013-05-26 23:03:00,50.8,39.8,30.28,NE,35,0.0,1.0,66,0.00,BKN,,0.00,0.0,WeatherDisplay:10.37,2013-05-27 03:03:00,
2013-05-26 23:08:00,50.5,39.6,30.27,NE,35,0.1,1.1,66,0.00,BKN,,0.00,0.0,WeatherDisplay:10.37,2013-05-27 03:08:00,
2013-05-26 23:13:00,50.0,40.2,30.28,NE,35,0.0,0.0,69,0.00,BKN,,0.00,0.0,WeatherDisplay:10.37,2013-05-27 03:13:00,
2013-05-26 23:18:00,49.4,40.0,30.28,NE,35,0.0,0.0,70,0.00,BKN,,0.00,0.0,WeatherDisplay:10.37,2013-05-27 03:18:00,
2013-05-26 23:23:00,49.2,40.2,30.27,NE,35,0.0,0.0,71,0.00,BKN,,0.00,0.0,WeatherDisplay:10.37,2013-05-27 03:23:00,
2013-05-26 23:28:00,49.2,40.2,30.27,NE,35,0.0,0.0,71,0.00,BKN,,0.00,0.0,WeatherDisplay:10.37,2013-05-27 03:28:00,
2013-05-26 23:33:00,49.2,40.2,30.27,NE,35,0.7,2.3,71,0.00,BKN,,0.00,0.0,WeatherDisplay:10.37,2013-05-27 03:33:00,
2013-05-26 23:38:00,49.1,40.5,30.27,NE,35,0.8,1.1,72,0.00,BKN,,0.00,0.0,WeatherDisplay:10.37,2013-05-27 03:38:00,
2013-05-26 23:43:00,48.9,40.3,30.27,NE,35,0.2,1.1,72,0.00,BKN,,0.00,0.0,WeatherDisplay:10.37,2013-05-27 03:43:00,
2013-05-26 23:48:00,48.4,40.5,30.28,NE,35,0.0,0.0,74,0.00,BKN,,0.00,0.0,WeatherDisplay:10.37,2013-05-27 03:48:00,
2013-05-26 23:53:00,48.0,40.1,30.28,NE,35,0.5,1.1,74,0.00,BKN,,0.00,0.0,WeatherDisplay:10.37,2013-05-27 03:53:00,
2013-05-26 23:58:00,47.9,40.4,30.28,NE,35,0.3,1.1,75,0.00,BKN,,0.00,0.0,WeatherDisplay:10.37,2013-05-27 03:58:00,